EW9106 Weather Reports


time (UTC)temp
C
wind
direction
speed
KPH
gust
KPH
rain 1hr
cm
rain 24hr
cm
rain mn
cm
humidity
%
barometer
mb
20260504081601 10 204 0.0 4.8 0.00 0.00 0.00 72 1005.7
20260504081101 10 215 0.0 0.0 0.00 0.00 0.00 72 1005.9
20260504080602 10 213 0.0 1.6 0.00 0.00 0.00 72 1005.9
20260504045601 10 223 1.6 11.3 0.00 0.00 0.00 68 1008.1
20260504045102 10 206 0.0 4.8 0.00 0.00 0.00 68 1008.2
20260504044601 10 216 0.0 4.8 0.00 0.00 0.00 69 1008.2
20260504044102 10 215 0.0 0.0 0.00 0.00 0.00 69 1008.1
20260504043601 10 186 1.6 14.5 0.00 0.00 0.00 69 1008.1
20260504043102 10 207 1.6 9.7 0.00 0.00 0.00 69 1007.9
20260504042601 10 189 0.0 12.9 0.00 0.00 0.00 69 1008.2
20260504042101 10 186 1.6 8.0 0.00 0.00 0.00 69 1008.2
20260504041601 10 195 1.6 4.8 0.00 0.00 0.00 69 1008.2
20260504041101 10 205 1.6 9.7 0.00 0.00 0.00 69 1008.2
20260504040601 10 208 0.0 4.8 0.00 0.00 0.00 69 1008.2
20260504035602 10 189 1.6 12.9 0.00 0.00 0.00 69 1008.5
20260504034601 10 204 0.0 4.8 0.00 0.00 0.00 70 1008.7
20260504034101 10 208 0.0 1.6 0.00 0.00 0.00 70 1008.6
20260504033602 10 204 0.0 1.6 0.00 0.00 0.00 70 1008.6
20260504033102 10 200 0.0 9.7 0.00 0.00 0.00 71 1008.6
20260504032601 10 204 1.6 12.9 0.00 0.00 0.00 71 1008.7
20260504032101 10 208 1.6 14.5 0.00 0.00 0.00 71 1008.7
20260504031601 10 191 0.0 12.9 0.00 0.00 0.00 72 1008.8
20260504030602 10 189 0.0 3.2 0.00 0.00 0.00 72 1008.9
20260504030101 10 186 0.0 8.0 0.00 0.00 0.00 73 1008.9
20260504025601 10 218 0.0 9.7 0.00 0.00 0.00 73 1009.0
20260504024602 10 210 0.0 3.2 0.00 0.00 0.00 72 1009.2
20260504024101 10 197 0.0 0.0 0.00 0.00 0.00 72 1009.2
20260504023601 10 183 0.0 0.0 0.00 0.00 0.00 72 1009.2
20260504022602 10 197 0.0 3.2 0.00 0.00 0.00 72 1009.3
20260504022102 10 191 0.0 1.6 0.00 0.00 0.00 72 1009.4
20260504021601 10 198 0.0 3.2 0.00 0.00 0.00 71 1009.3
20260504021102 10 189 0.0 4.8 0.00 0.00 0.00 71 1009.3
20260504020602 10 190 0.0 9.7 0.00 0.00 0.00 71 1009.3
20260504015602 11 184 0.0 8.0 0.00 0.00 0.00 70 1009.3
20260504015102 11 184 0.0 4.8 0.00 0.00 0.00 70 1009.3
20260504014602 11 191 0.0 0.0 0.00 0.00 0.00 70 1009.3
20260504013602 11 187 0.0 1.6 0.00 0.00 0.00 69 1009.2
20260504013102 11 215 0.0 3.2 0.00 0.00 0.00 69 1009.3
20260504012602 11 195 1.6 12.9 0.00 0.00 0.00 69 1009.3
20260504012101 11 205 0.0 0.0 0.00 0.00 0.00 68 1009.2
20260504011601 11 186 0.0 0.0 0.00 0.00 0.00 69 1009.3
20260504010602 11 228 0.0 0.0 0.00 0.00 0.00 68 1009.4
20260504005602 11 201 0.0 0.0 0.00 0.00 0.00 67 1009.5
20260504005102 11 202 0.0 0.0 0.00 0.00 0.00 67 1009.5
20260504004601 11 193 0.0 0.0 0.00 0.00 0.00 66 1009.5
20260504003602 11 216 0.0 0.0 0.00 0.00 0.00 65 1009.5
20260504003102 11 236 0.0 3.2 0.00 0.00 0.00 65 1009.5
20260504002601 11 204 0.0 0.0 0.00 0.00 0.00 66 1009.4
20260504002102 11 229 0.0 0.0 0.00 0.00 0.00 65 1009.6
20260504001602 11 217 0.0 1.6 0.00 0.00 0.00 64 1009.7
20260504001102 11 247 0.0 3.2 0.00 0.00 0.00 64 1009.8
20260503235601 11 234 0.0 0.0 0.00 0.00 0.00 64 1009.9
20260503235102 12 230 0.0 4.8 0.00 0.00 0.00 63 1009.8
20260503234601 12 247 0.0 4.8 0.00 0.00 0.00 62 1010.0
20260503234102 12 235 0.0 4.8 0.00 0.00 0.00 61 1010.0
20260503233603 12 223 0.0 9.7 0.00 0.00 0.00 60 1009.9
20260503233102 12 237 0.0 4.8 0.00 0.00 0.00 60 1009.8
20260503232602 12 227 0.0 9.7 0.00 0.00 0.00 60 1009.8
20260503231602 13 254 0.0 1.6 0.00 0.00 0.00 59 1009.7
20260503231103 13 229 0.0 11.3 0.00 0.00 0.00 58 1009.9
20260503225103 15 227 0.0 4.8 0.00 0.00 0.00 43 1009.3
20260503224102 15 217 0.0 9.7 0.00 0.00 0.00 43 1009.3
20260503223602 15 224 0.0 9.7 0.00 0.00 0.00 42 1009.4
20260503222602 15 236 0.0 3.2 0.00 0.00 0.00 41 1009.4
20260503222102 15 229 0.0 3.2 0.00 0.00 0.00 41 1009.4
20260503221602 15 238 0.0 8.0 0.00 0.00 0.00 44 1009.5
20260503221102 15 236 0.0 4.8 0.00 0.00 0.00 43 1009.4
20260503220602 15 240 0.0 3.2 0.00 0.00 0.00 43 1009.4
20260503215603 15 224 0.0 8.0 0.00 0.00 0.00 43 1009.4
20260503215102 15 210 0.0 4.8 0.00 0.00 0.00 43 1009.4
20260503214602 15 264 0.0 3.2 0.00 0.00 0.00 42 1009.4
20260503214102 15 220 0.0 4.8 0.00 0.00 0.00 43 1009.5
20260503213602 15 220 1.6 12.9 0.00 0.00 0.00 42 1009.6
20260503212602 15 227 1.6 4.8 0.00 0.00 0.00 41 1009.7
20260503212102 15 241 3.2 14.5 0.00 0.00 0.00 41 1009.6
20260503211102 15 246 1.6 9.7 0.00 0.00 0.00 41 1009.8
20260503210603 16 231 3.2 19.3 0.00 0.00 0.00 41 1009.8
20260503205602 16 247 1.6 11.3 0.00 0.00 0.00 41 1009.7
20260503204103 15 226 0.0 8.0 0.00 0.00 0.00 42 1010.0
20260503203602 16 238 1.6 12.9 0.00 0.00 0.00 40 1010.0
20260503203103 16 242 0.0 19.3 0.00 0.00 0.00 42 1010.0
20260503202602 16 239 0.0 3.2 0.00 0.00 0.00 41 1010.1
20260503202102 16 227 0.0 9.7 0.00 0.00 0.00 40 1010.1
20260503201102 16 248 0.0 1.6 0.00 0.00 0.00 40 1010.1
20260503200602 16 216 0.0 3.2 0.00 0.00 0.00 40 1010.2
20260503195602 16 234 0.0 16.1 0.00 0.00 0.00 40 1010.4
20260503195102 16 227 0.0 1.6 0.00 0.00 0.00 39 1010.4
20260503194602 16 241 0.0 1.6 0.00 0.00 0.00 40 1010.4
20260503194103 16 235 0.0 0.0 0.00 0.00 0.00 41 1010.5
20260503193602 16 228 0.0 3.2 0.00 0.00 0.00 40 1010.5
20260503193103 16 280 0.0 1.6 0.00 0.00 0.00 39 1010.7
20260503192602 16 243 0.0 4.8 0.00 0.00 0.00 39 1010.7
20260503192103 16 240 1.6 9.7 0.00 0.00 0.00 39 1010.9
20260503191102 16 202 0.0 0.0 0.00 0.00 0.00 40 1011.1
20260503185603 16 241 0.0 4.8 0.00 0.00 0.00 39 1011.3
20260503185102 16 220 0.0 9.7 0.00 0.00 0.00 40 1011.3
20260503184603 16 229 0.0 4.8 0.00 0.00 0.00 37 1011.4
20260503184102 16 264 0.0 0.0 0.00 0.00 0.00 41 1011.4
20260503183603 16 262 0.0 4.8 0.00 0.00 0.00 37 1011.3
20260503183102 16 231 0.0 4.8 0.00 0.00 0.00 39 1011.4
20260503182602 16 215 0.0 1.6 0.00 0.00 0.00 41 1011.6
20260503181603 16 250 0.0 3.2 0.00 0.00 0.00 38 1011.7
20260503181102 16 254 0.0 4.8 0.00 0.00 0.00 39 1011.9
20260503180603 16 233 0.0 0.0 0.00 0.00 0.00 41 1011.7
20260503175602 16 230 0.0 1.6 0.00 0.03 0.00 41 1011.7
20260503174602 16 235 0.0 3.2 0.00 0.03 0.00 42 1011.9
20260503173602 16 214 0.0 8.0 0.00 0.03 0.00 40 1012.0
20260503173103 16 258 0.0 0.0 0.00 0.03 0.00 41 1012.0
20260503172602 15 225 0.0 3.2 0.00 0.03 0.00 43 1012.1
20260503171602 15 272 0.0 3.2 0.00 0.03 0.00 41 1012.2
20260503171103 16 249 0.0 3.2 0.00 0.03 0.00 40 1012.3
20260503170602 15 231 0.0 1.6 0.00 0.03 0.00 41 1012.4
20260503150603 12 270 0.0 0.0 0.00 0.05 0.00 53 1013.7
20260503131103 8 229 0.0 3.2 0.00 0.05 0.00 62 1013.9
20260503130603 8 205 0.0 4.8 0.00 0.05 0.00 63 1014.0
20260503130103 8 222 1.6 8.0 0.00 0.05 0.00 63 1014.0
20260503110603 2 206 0.0 0.0 0.00 0.05 0.00 83 1013.8